• MPC Preparation (Info)

  • MPEC 2022-Q36 : 2022 QQ

    The following Minor Planet Electronic Circular may be linked-to from your own Web pages, but must not otherwise be redistributed electronically.

    A form allowing access to any MPEC is at the bottom of this page.


    Read MPEC 2022-Q35 Read MPEC 2022-Q37


    M.P.E.C. 2022-Q36                               Issued 2022 August 20, 11:12 UT
    
         The Minor Planet Electronic Circulars contain information on unusual
             minor planets and routine data on comets.  They are published
        on behalf of Division F of the International Astronomical Union by the
              Minor Planet Center, Smithsonian Astrophysical Observatory,
                              Cambridge, MA 02138, U.S.A.
    
                 Prepared using the Tamkin Foundation Computer Network
    
                                  MPC@CFA.HARVARD.EDU
                URL https://www.minorplanetcenter.net/    ISSN 1523-6714
    
                                     2022 QQ                                 
    
    
    Observations:
         K22Q00Q* C2022 08 18.44499521 53 41.691-10 37 40.08         20.72wUEQ036F51
         K22Q00Q  C2022 08 18.45748821 53 32.639-10 39 10.31         20.57wUEQ036F51
         K22Q00Q  C2022 08 18.46997621 53 23.611-10 40 40.13         20.80wUEQ036F51
         K22Q00Q  C2022 08 18.57457321 52 08.449-10 53 09.78               VEQ036F52
         K22Q00Q  C2022 08 18.57572321 52 07.649-10 53 17.97         20.32GVEQ036F52
         K22Q00Q KC2022 08 18.95744621 47 52.06 -11 40 31.9          20.1 GXEQ036I93
         K22Q00Q KC2022 08 18.96182221 47 48.78 -11 41 03.7          20.1 GXEQ036I93
         K22Q00Q KC2022 08 18.96619321 47 45.58 -11 41 36.6          20.0 GXEQ036I93
         K22Q00Q KC2022 08 19.18030621 45 16.01 -12 07 55.0          20.3 VuEQ036H21
         K22Q00Q KC2022 08 19.18310121 45 13.91 -12 08 16.0          20.2 VuEQ036H21
         K22Q00Q KC2022 08 19.18589621 45 11.85 -12 08 37.0          20.4 VuEQ036H21
         K22Q00Q KC2022 08 19.19009121 45 08.70 -12 09 08.1          20.5 VuEQ036H21
         K22Q00Q KC2022 08 19.19279421 45 06.66 -12 09 28.1          20.4 VuEQ036H21
         K22Q00Q  C2022 08 19.25363521 44 24.382-12 16 53.61         20.3 GVEQ036654
         K22Q00Q  C2022 08 19.30904321 43 42.495-12 23 48.99         20.4 GVEQ036654
         K22Q00Q  C2022 08 19.34735121 43 13.382-12 28 35.24         20.4 GVEQ036654
         K22Q00Q |C2022 08 20.11080 21 33 56.26 -14 02 48.5          20.5 VuEQ036807
         K22Q00Q |C2022 08 20.11551 21 33 52.51 -14 03 24.7          20.5 VuEQ036807
    
    Observer details:
    654 Table Mountain Observatory, Wrightwood-PHMC.  Observers N. Evans, P. Choi,
        N. Saini, C. Zhai, R. Trahan, M. Shao.  1.0-m Reflector + CCD.
    807 Cerro Tololo Observatory, La Serena.  Observers T. Linder, R. Holmes, L.
        Horn.  0.61-m f/6.5 Dall-Kirkham Astrograph + CCD.
    F51 Pan-STARRS 1, Haleakala.  Observers J. Bulger, T. Lowe, A. Schultz, I.
        Smith.  Measurers K. Chambers, S. Chastel, T. de Boer, J. Fairlamb, H.
        Gao, M. Huber, C.-C. Lin, E. Magnier, Y. Ramanjooloo, R. Wainscoat, R.
        Weryk.  1.8-m Ritchey-Chretien + CCD.
    F52 Pan-STARRS 2, Haleakala.  Observers J. Bulger, K. Chambers, T. Dukes, T.
        Lowe, A. Schultz, I. Smith.  Measurers S. Chastel, J. Fairlamb, M. Huber,
        Y. Ramanjooloo, R. Wainscoat, R. Weryk.  1.8-m Ritchey-Chretien + CCD.
    H21 Astronomical Research Observatory, Westfield.  Observer R. Holmes.
        Measurers T. Linder, R. Holmes, L. Horn.  0.76-m f/3.0 astrograph + CCD.
    I93 St Pardon de Conques.  Observer F. Losse.  0.40-m f/3.7 reflector + CCD.
    
    Orbital elements:
    2022 QQ                                                  Earth MOID = 0.0259 AU
    Epoch 2022 Aug. 9.0 TT = JDT 2459800.5                  Veres                   
    M 196.59827              (2000.0)            P               Q                  
    n   1.41531328     Peri.  344.66246     -0.66133295     -0.74807987             
    a   0.7856594      Node   146.68358     +0.69828714     -0.64073963             
    e   0.4097682      Incl.    5.73759     +0.27392299     -0.17271142             
    P   0.70           H   25.79          G   0.15           U   7                  
    Residuals in seconds of arc
    220818 F51  0.3+  0.2+    220818 I93  0.2+  0.9+    220819 H21  0.0   0.3+
    220818 F51  0.1-  0.1-    220818 I93  0.4+  0.3+    220819 654  0.1-  0.3-
    220818 F51  0.2-  0.0     220819 H21  0.1+  0.1+    220819 654  0.1+  0.2-
    220818 F52  0.0   0.0     220819 H21  0.1-  0.0     220819 654  0.2+  0.2-
    220818 F52  0.3+  0.0     220819 H21  0.4+  0.1-    220820 807  0.1-  0.0
    220818 I93  1.1+  0.3+    220819 H21  0.2+  0.1+    220820 807  0.1-  0.2+
    
    Ephemeris:
    2022 QQ                  a,e,i = 0.79, 0.41, 6                   q = 0.4637
    Date    TT    R. A. (2000) Decl.     Delta      r    Elong.  Phase     V
    2022 07 21    23 55 21.2 +12 09 34   0.1883  1.1050   113.6    57.4    24.5
    ...
    2022 08 05    23 25 51.4 +06 38 22   0.1198  1.1046   136.6    39.1    23.0
    ...
    2022 08 13    22 43 37.8 -01 20 52   0.08847 1.0954   157.3    21.0    21.8
    ...
    2022 08 19    21 47 21.2 -11 44 00   0.07209 1.0842   178.4     1.5    20.5
    2022 08 20    21 35 16.8 -13 49 13   0.07030 1.0820   174.9     4.8    20.6
    2022 08 21    21 22 24.9 -15 57 53   0.06884 1.0797   170.3     9.0    20.8
    ...
    2022 08 27    19 52 29.6 -28 09 43   0.06758 1.0637   140.8    36.9    21.6
    ...
    2022 09 04    17 56 40.4 -36 20 10   0.08289 1.0368   107.7    67.9    22.9
    ...
    2022 09 19    15 59 37.9 -37 01 07   0.1314  0.9688    70.5   102.2    25.1
    
    M. P. C. Staff               (C) Copyright 2022 MPC           M.P.E.C. 2022-Q36
    


    Read MPEC 2022-Q35 Read MPEC 2022-Q37


    MPEC number:

    Enter an MPEC number in one of the following forms:

    • 1997-B01 (the full form)
    • J97B01 (the packed version of the full form)
    • B01 (the abbreviated form)